Wind_Speed
6 5 5 5 5 5 6 6 7 8 8 9 10 10 11 11 12 12 12 12 12 12 11 11 11 11 11 12 12 13 14 14 14 15 15 15 16 16 17 17 18 18 18
4 4 5 5 5 6 6 7 8 9 9 10 11 11 12 12 12 12 12 12 12 12 12 12 12 12 13 13 14 14 15 16 16 17 17 18 18 18 19 19 19 20 20
4 5 5 6 6 7 8 9 9 10 11 11 11 12 12 12 12 12 12 13 13 13 13 13 13 13 13 13 14 15 15 16 17 18 18 19 20 20 21 21 22 22 22
5 6 7 8 8 9 9 10 10 11 11 11 11 12 12 12 12 12 12 12 12 12 12 12 13 13 13 14 14 15 15 16 17 18 19 20 21 22 22 23 24 24 25
7 8 9 10 10 10 11 11 11 11 11 12 12 12 12 12 12 12 12 12 12 12 12 13 13 14 14 14 15 16 16 17 18 18 19 20 22 23 24 25 26 27 27
10 10 11 11 12 12 12 12 12 12 12 12 12 12 12 12 12 12 12 12 12 13 13 14 14 14 15 15 16 16 17 18 18 19 20 21 22 23 24 25 27 28 29
12 12 12 13 13 13 13 13 13 12 12 12 13 13 13 12 12 12 13 13 13 13 14 14 14 15 15 16 16 17 18 19 19 20 21 22 23 24 25 26 27 28 29
14 14 13 14 13 13 13 13 13 13 13 13 13 13 13 13 13 12 12 13 13 13 13 14 14 15 16 16 17 18 19 20 21 21 23 24 25 26 27 28 29 30 30
15 15 14 14 14 14 14 14 14 14 14 14 13 13 13 13 12 12 12 12 13 13 14 14 15 15 16 17 17 18 19 20 21 22 23 24 26 27 28 29 30 31 32
15 15 15 14 15 15 15 15 15 14 14 14 14 14 14 13 13 13 13 13 14 14 14 15 16 16 17 18 19 20 21 21 23 24 25 26 27 28 29 30 31 33 34
15 16 16 15 16 16 16 16 15 15 15 15 15 15 15 15 15 15 15 15 16 16 16 17 18 18 19 20 21 22 23 24 25 26 27 28 29 30 31 32 33 34 35
15 16 17 17 17 16 17 17 17 17 17 17 17 17 17 17 17 17 18 18 18 19 19 20 21 21 22 23 24 25 26 27 28 28 29 30 31 32 33 34 35 36 37
16 17 18 18 17 18 18 18 19 19 19 19 19 19 20 20 20 20 21 21 22 22 23 23 24 25 26 27 28 29 30 31 32 32 33 34 35 36 36 37 38 39 40
17 19 19 19 19 20 20 21 21 21 22 22 22 22 23 23 23 24 24 25 25 26 27 27 28 29 30 31 32 33 33 35 36 37 37 38 39 40 40 41 42 42 43
19 19 20 21 21 22 22 23 24 25 25 26 26 26 27 27 28 28 28 29 30 30 31 31 32 33 34 35 36 37 38 38 39 40 41 42 43 43 44 45 45 46 47
20 20 21 22 24 24 25 26 27 28 28 29 30 30 30 31 32 32 33 33 34 35 35 36 36 37 38 39 40 41 41 42 43 44 45 45 46 47 47 48 49 49 50
22 22 22 23 24 26 27 29 30 31 32 32 33 34 34 35 36 36 37 38 39 39 39 40 41 42 43 43 44 45 45 46 46 47 48 49 49 50 51 51 52 52 52
23 24 24 25 25 27 29 30 32 33 34 35 36 37 38 39 40 41 41 42 43 44 44 44 45 46 47 47 48 49 49 49 50 50 51 51 52 53 54 54 55 55 55
23 24 25 26 27 29 30 31 33 34 35 37 39 40 41 43 44 45 45 46 47 47 48 48 49 50 51 51 52 52 52 53 53 53 54 54 55 56 57 57 57 57 57
23 24 26 27 29 30 31 32 33 34 36 38 39 41 43 44 46 47 48 49 50 51 51 52 53 54 54 55 56 55 55 56 56 56 57 57 58 58 59 59 59 59 59
23 24 25 27 29 30 32 33 34 35 36 37 39 41 43 45 47 49 50 51 53 54 54 56 57 57 58 59 59 58 58 58 58 58 60 60 60 60 60 60 61 61 61
24 25 26 28 29 31 32 34 35 36 37 39 40 42 44 46 48 50 52 53 55 56 57 58 59 60 60 61 62 62 61 60 60 61 61 61 61 61 61 62 62 63 62
26 27 28 29 30 31 33 34 35 36 38 39 42 44 46 47 49 51 53 55 56 58 59 60 61 62 62 63 64 64 64 63 63 62 61 61 62 62 63 64 63 62 61
28 28 28 29 30 32 33 34 36 37 38 40 43 44 46 48 50 53 55 57 58 59 60 61 63 64 65 65 66 66 67 67 67 65 62 62 63 63 63 63 62 61 60
28 28 28 29 30 32 33 35 36 38 39 41 43 45 48 50 52 54 56 58 60 61 62 63 65 66 67 67 68 68 68 68 68 69 66 64 64 63 63 63 62 61 61
27 28 29 30 31 32 34 35 37 38 40 42 44 46 48 50 53 55 57 59 61 62 63 65 66 68 68 68 69 69 69 69 68 69 68 66 65 63 63 62 62 61 61
Wind_Direction
217 217 226 233 240 247 255 261 264 267 270 273 274 275 275 276 276 277 276 275 274 274 272 269 267 266 263 260 258 258 258 258 259 258 256 254 251 248 246 244 243 243 243
213 221 232 240 248 255 262 267 271 272 273 274 276 276 276 276 277 277 277 277 277 276 275 275 274 272 270 268 265 263 262 261 261 262 261 260 258 256 253 251 248 247 246
225 239 247 254 259 263 268 273 276 277 277 277 277 278 278 278 278 277 278 278 279 279 279 278 277 276 275 273 271 268 267 265 264 263 262 262 261 259 258 256 254 252 250
248 256 260 264 267 270 273 275 277 279 279 279 279 280 279 278 279 279 279 279 279 279 279 280 279 278 277 276 274 272 271 269 268 266 265 263 262 261 260 259 258 257 256
261 264 267 269 272 274 275 276 277 279 279 280 280 280 280 279 280 279 279 279 279 279 280 281 281 281 280 279 277 276 275 273 271 269 267 266 265 263 262 261 261 260 259
268 269 270 272 273 274 276 277 277 278 278 279 280 280 280 279 278 278 278 279 280 282 283 283 284 284 283 282 281 280 278 277 275 273 271 269 267 266 264 263 262 262 261
272 271 271 273 274 275 276 277 277 276 276 278 278 279 278 277 277 277 278 280 282 284 285 285 286 286 286 286 285 284 282 281 279 277 275 273 271 269 267 266 265 263 262
272 272 272 273 274 274 274 275 275 274 275 276 276 275 274 274 275 276 278 280 283 285 287 288 290 290 291 291 290 289 288 286 284 282 280 278 275 273 271 269 267 266 265
272 272 271 270 270 271 271 272 272 272 272 273 272 272 271 272 273 274 277 280 283 286 288 291 292 293 294 294 294 294 293 292 290 288 285 283 280 278 275 273 271 269 267
271 271 270 268 268 269 269 269 269 269 269 270 270 269 269 271 272 274 276 279 283 286 289 291 293 295 295 296 296 296 296 295 294 293 291 289 286 284 281 278 276 274 272
270 270 270 268 268 268 267 267 266 266 267 267 268 268 268 270 271 272 275 278 281 284 286 289 292 293 294 295 296 297 297 297 296 295 294 293 291 289 286 283 281 278 275
271 271 270 269 268 267 266 265 265 265 266 266 266 266 267 268 269 272 274 276 279 281 284 287 289 291 292 293 294 295 295 296 296 296 295 295 294 292 290 287 285 282 279
273 271 270 271 269 267 266 265 264 265 265 264 265 266 266 268 269 272 273 275 277 280 282 284 287 288 289 291 291 292 293 293 294 294 294 294 294 293 292 290 287 285 282
274 273 273 272 270 268 266 266 265 264 264 264 265 266 266 267 269 271 273 274 276 278 280 283 285 286 287 289 289 290 291 292 292 292 292 292 292 292 292 290 289 287 284
276 273 272 272 269 268 266 265 264 264 264 265 266 266 266 267 269 270 271 273 275 277 279 281 283 284 286 287 288 288 289 290 291 291 291 291 291 290 290 290 289 288 286
277 273 271 270 269 268 267 265 265 265 265 265 266 266 267 268 269 270 271 273 274 276 278 279 281 282 283 284 285 286 287 288 289 289 290 290 290 289 289 289 288 288 287
278 276 273 270 270 269 268 267 267 266 266 266 266 266 267 267 268 269 271 272 273 275 276 278 279 280 281 283 284 285 286 287 288 288 288 289 289 288 288 288 288 287 286
280 278 275 273 271 269 268 268 268 268 268 268 268 268 268 267 268 269 270 271 272 274 276 277 278 279 281 282 283 284 285 286 286 287 287 287 287 287 287 287 287 286 285
283 281 279 277 274 272 270 270 270 270 270 269 269 269 269 269 269 270 270 271 272 274 275 276 278 279 280 281 282 283 284 285 285 286 286 286 286 286 286 286 286 285 285
285 283 282 281 278 276 274 273 272 271 270 270 271 272 272 272 272 272 272 272 273 274 275 276 277 279 280 280 281 282 283 284 285 285 285 285 286 286 285 285 285 285 284
287 285 284 282 281 280 278 276 275 274 273 273 273 273 272 272 272 272 273 273 274 275 276 276 278 279 279 280 281 282 282 283 284 284 284 285 286 285 285 285 285 284 284
289 286 284 282 281 280 279 279 278 277 276 275 274 273 273 273 274 275 276 276 276 277 277 278 279 279 280 280 281 282 282 282 283 283 284 285 285 284 284 284 284 284 283
288 286 285 284 283 282 281 281 280 279 279 278 277 277 277 277 277 277 277 277 278 278 279 279 280 280 281 281 282 283 283 283 282 282 283 284 283 283 283 284 283 283 283
290 289 288 287 286 285 285 284 283 283 282 280 280 280 280 279 279 279 279 279 278 279 279 279 279 280 280 281 281 282 283 283 283 283 282 282 282 283 283 282 282 282 282
294 294 294 293 292 291 290 288 287 286 285 284 283 282 281 280 280 279 279 279 279 279 279 279 279 279 279 280 281 281 282 282 283 284 283 282 282 282 281 281 281 281 281
298 298 298 297 296 295 294 293 291 290 289 287 286 285 284 283 282 281 280 280 279 279 279 278 278 279 279 280 280 281 281 281 282 282 283 282 281 281 280 280 280 280 280
Height
5876 5876 5877 5877 5877 5877 5877 5877 5877 5877 5878 5877 5877 5877 5877 5877 5877 5876 5876 5876 5876 5875 5876 5876 5876 5876 5876 5876 5876 5876 5876 5876 5877 5877 5877 5877 5878 5878 5878 5878 5879 5879 5879
5876 5876 5876 5876 5876 5876 5876 5876 5876 5876 5876 5875 5875 5875 5875 5875 5874 5874 5874 5873 5873 5873 5873 5873 5873 5873 5873 5873 5873 5873 5873 5873 5874 5874 5874 5874 5874 5875 5875 5875 5876 5876 5876
5875 5875 5875 5875 5875 5874 5874 5874 5874 5874 5873 5873 5873 5873 5873 5872 5872 5872 5871 5871 5870 5870 5870 5870 5870 5870 5870 5870 5870 5870 5870 5870 5870 5870 5871 5871 5871 5871 5871 5872 5872 5872 5873
5874 5874 5874 5874 5873 5873 5872 5872 5872 5871 5871 5871 5871 5870 5870 5870 5870 5869 5869 5868 5868 5868 5867 5867 5867 5867 5867 5867 5866 5866 5866 5866 5867 5867 5867 5867 5867 5867 5867 5867 5868 5868 5868
5873 5873 5872 5872 5871 5871 5871 5870 5870 5869 5869 5869 5868 5868 5868 5867 5867 5867 5866 5866 5865 5865 5865 5864 5864 5864 5863 5863 5863 5863 5863 5863 5863 5863 5863 5863 5863 5863 5863 5863 5863 5863 5863
5871 5870 5870 5870 5869 5869 5868 5868 5867 5867 5867 5866 5866 5865 5865 5865 5864 5864 5864 5863 5863 5862 5862 5861 5861 5860 5860 5860 5859 5859 5859 5858 5858 5858 5858 5858 5858 5858 5858 5858 5858 5858 5858
5868 5868 5867 5867 5866 5866 5865 5865 5864 5864 5864 5864 5863 5863 5862 5862 5861 5861 5861 5860 5860 5859 5859 5858 5858 5857 5856 5856 5855 5855 5854 5854 5854 5853 5853 5853 5853 5852 5852 5852 5852 5852 5852
5865 5865 5864 5864 5863 5863 5862 5862 5862 5861 5861 5861 5860 5860 5859 5859 5859 5858 5858 5857 5856 5856 5855 5855 5854 5853 5853 5852 5851 5850 5850 5849 5849 5848 5848 5847 5847 5847 5846 5846 5846 5846 5846
5861 5861 5861 5860 5860 5860 5859 5859 5859 5858 5858 5858 5857 5857 5856 5856 5855 5855 5854 5854 5853 5852 5852 5851 5850 5849 5849 5848 5847 5846 5845 5844 5844 5843 5842 5842 5841 5841 5840 5839 5839 5839 5839
5858 5857 5857 5857 5856 5856 5856 5855 5855 5855 5855 5854 5854 5854 5853 5853 5852 5852 5851 5850 5850 5849 5848 5847 5846 5845 5844 5843 5842 5841 5840 5840 5839 5838 5837 5836 5835 5834 5833 5833 5832 5832 5831
5854 5853 5853 5853 5852 5852 5852 5852 5852 5851 5851 5851 5850 5850 5850 5849 5848 5848 5847 5846 5846 5845 5844 5843 5842 5841 5840 5839 5837 5836 5835 5834 5833 5832 5831 5829 5828 5827 5826 5825 5824 5824 5823
5851 5850 5849 5849 5848 5848 5848 5848 5848 5847 5847 5847 5846 5846 5845 5845 5844 5844 5843 5842 5841 5840 5839 5838 5837 5836 5835 5833 5832 5831 5829 5828 5827 5825 5824 5823 5821 5820 5819 5817 5816 5815 5815
5847 5846 5845 5844 5844 5844 5844 5844 5843 5843 5842 5842 5842 5841 5841 5840 5839 5839 5838 5837 5836 5835 5834 5833 5832 5830 5829 5827 5826 5825 5823 5821 5820 5818 5817 5815 5813 5812 5810 5809 5808 5806 5805
5843 5841 5840 5840 5840 5839 5839 5839 5838 5838 5837 5837 5836 5836 5835 5835 5834 5833 5832 5831 5830 5829 5828 5827 5825 5824 5822 5821 5819 5817 5816 5814 5812 5811 5809 5807 5805 5803 5801 5800 5798 5797 5795
5838 5837 5836 5835 5834 5834 5834 5833 5833 5832 5832 5831 5831 5830 5829 5828 5828 5827 5826 5825 5823 5822 5821 5820 5818 5816 5815 5813 5811 5810 5808 5806 5804 5802 5800 5798 5796 5794 5792 5790 5788 5786 5785
5832 5831 5831 5830 5829 5828 5828 5827 5827 5826 5826 5825 5824 5823 5823 5822 5821 5820 5818 5817 5816 5814 5813 5812 5810 5808 5806 5805 5803 5801 5799 5797 5795 5793 5790 5788 5786 5783 5781 5779 5777 5775 5773
5826 5825 5825 5824 5823 5822 5821 5820 5820 5819 5819 5818 5817 5816 5815 5814 5813 5812 5811 5809 5807 5806 5805 5803 5801 5799 5797 5795 5793 5791 5789 5787 5785 5783 5780 5778 5775 5773 5770 5768 5765 5763 5761
5820 5818 5818 5817 5817 5816 5815 5814 5813 5812 5811 5810 5809 5808 5807 5806 5804 5803 5802 5800 5798 5796 5795 5793 5791 5790 5787 5785 5783 5781 5779 5777 5774 5772 5769 5766 5764 5761 5758 5756 5753 5750 5748
5814 5812 5811 5810 5809 5809 5808 5807 5806 5805 5804 5802 5801 5799 5798 5796 5795 5793 5792 5790 5788 5786 5785 5783 5781 5778 5776 5774 5771 5770 5768 5765 5763 5760 5757 5754 5751 5748 5745 5742 5740 5737 5735
5808 5806 5804 5803 5801 5800 5800 5799 5798 5797 5796 5794 5792 5791 5789 5787 5785 5783 5782 5780 5777 5776 5774 5771 5769 5766 5764 5761 5759 5758 5756 5753 5750 5748 5744 5741 5738 5735 5732 5729 5726 5723 5721
5802 5800 5798 5796 5794 5793 5791 5790 5789 5788 5787 5786 5784 5782 5780 5777 5775 5772 5771 5768 5766 5764 5762 5759 5757 5754 5751 5747 5746 5745 5743 5740 5738 5734 5730 5728 5724 5720 5717 5714 5711 5708 5706
5796 5794 5792 5790 5788 5785 5784 5782 5781 5779 5778 5776 5774 5771 5769 5766 5764 5762 5760 5757 5754 5752 5749 5747 5743 5740 5738 5734 5731 5729 5728 5728 5724 5720 5716 5713 5710 5706 5703 5699 5696 5693 5690
5789 5787 5785 5783 5781 5778 5776 5774 5772 5770 5768 5766 5763 5760 5758 5755 5753 5750 5747 5744 5742 5739 5736 5733 5729 5726 5723 5720 5716 5713 5711 5711 5709 5707 5703 5699 5695 5691 5687 5684 5680 5677 5674
5782 5780 5777 5775 5773 5770 5768 5765 5763 5760 5758 5755 5753 5750 5747 5744 5741 5738 5734 5731 5728 5725 5722 5718 5714 5711 5707 5705 5701 5698 5694 5692 5689 5689 5689 5685 5680 5676 5672 5668 5665 5662 5659
5773 5771 5769 5767 5764 5761 5759 5756 5753 5751 5748 5745 5742 5739 5735 5732 5728 5725 5721 5717 5714 5710 5707 5703 5699 5695 5691 5688 5685 5682 5678 5675 5671 5668 5669 5668 5664 5660 5656 5652 5648 5645 5642
5766 5763 5761 5758 5755 5753 5750 5747 5743 5740 5737 5734 5730 5726 5723 5719 5715 5711 5706 5702 5698 5695 5691 5687 5682 5678 5675 5672 5668 5664 5661 5658 5655 5650 5647 5648 5645 5643 5638 5635 5632 5629 5625